Time,TemperatureF,DewpointF,PressureIn,WindDirection,WindDirectionDegrees,WindSpeedMPH,WindSpeedGustMPH,Humidity,HourlyPrecipIn,Conditions,Clouds,dailyrainin,SoftwareType,DateUTC
2013-06-07 00:03:00,62.0,61.0,29.87,South,177,0.0,3.0,96,0.00,,,0.19,,2013-06-07 04:03:00,
2013-06-07 00:12:00,62.0,61.0,29.87,South,177,0.0,3.0,96,0.00,,,0.19,,2013-06-07 04:12:00,
2013-06-07 00:23:00,62.0,61.0,29.86,South,177,0.0,3.0,96,0.00,,,0.19,,2013-06-07 04:23:00,
2013-06-07 00:33:00,62.0,61.0,29.87,South,178,0.0,0.0,96,0.00,,,0.19,,2013-06-07 04:33:00,
2013-06-07 00:42:00,62.0,61.0,29.87,South,178,0.0,0.0,96,0.00,,,0.19,,2013-06-07 04:42:00,
2013-06-07 00:53:00,62.0,61.0,29.86,South,177,0.0,0.0,96,0.00,,,0.19,,2013-06-07 04:53:00,
2013-06-07 01:03:00,62.0,61.0,29.86,South,178,0.0,0.0,97,0.00,,,0.19,,2013-06-07 05:03:00,
2013-06-07 01:12:00,62.0,61.0,29.86,South,178,0.0,0.0,97,0.00,,,0.19,,2013-06-07 05:12:00,
2013-06-07 01:22:00,62.0,61.0,29.86,South,178,0.0,0.0,97,0.00,,,0.19,,2013-06-07 05:22:00,
2013-06-07 01:32:00,62.0,61.0,29.85,South,177,0.0,0.0,97,0.01,,,0.08,,2013-06-07 05:32:00,
2013-06-07 01:42:00,62.0,61.0,29.85,South,177,0.0,0.0,97,0.01,,,0.08,,2013-06-07 05:42:00,
2013-06-07 01:52:00,62.0,61.0,29.84,South,177,0.0,0.0,97,0.13,,,0.20,,2013-06-07 05:52:00,
2013-06-07 02:02:00,62.0,61.0,29.84,South,179,0.0,0.0,97,0.24,,,0.31,,2013-06-07 06:02:00,
2013-06-07 02:12:00,62.0,61.0,29.84,South,179,0.0,0.0,97,0.24,,,0.31,,2013-06-07 06:12:00,
2013-06-07 02:22:00,62.0,61.0,29.83,South,179,0.0,0.0,97,0.32,,,0.39,,2013-06-07 06:22:00,
2013-06-07 02:32:00,62.0,61.0,29.83,South,179,0.0,1.0,96,0.37,,,0.47,,2013-06-07 06:32:00,
2013-06-07 02:42:00,62.0,61.0,29.83,South,179,0.0,1.0,96,0.37,,,0.47,,2013-06-07 06:42:00,
2013-06-07 02:52:00,62.0,61.0,29.82,South,177,0.0,2.0,96,0.28,,,0.48,,2013-06-07 06:52:00,
2013-06-07 03:02:00,61.0,60.0,29.82,South,177,0.0,3.0,96,0.19,,,0.51,,2013-06-07 07:02:00,
2013-06-07 03:11:00,61.0,60.0,29.80,South,178,0.0,0.0,97,0.05,,,0.50,,2013-06-07 07:11:00,
2013-06-07 03:12:00,61.0,60.0,29.82,South,177,0.0,3.0,96,0.19,,,0.51,,2013-06-07 07:12:00,
2013-06-07 03:22:00,61.0,60.0,29.81,South,177,0.0,1.0,97,0.11,,,0.51,,2013-06-07 07:22:00,
2013-06-07 03:32:00,61.0,60.0,29.80,South,178,0.0,0.0,97,0.05,,,0.50,,2013-06-07 07:32:00,
2013-06-07 03:42:00,61.0,60.0,29.80,South,178,0.0,0.0,97,0.05,,,0.50,,2013-06-07 07:42:00,
2013-06-07 03:52:00,61.0,60.0,29.80,South,178,0.0,0.0,97,0.05,,,0.50,,2013-06-07 07:52:00,
2013-06-07 04:02:00,61.0,60.0,29.80,South,178,0.0,0.0,97,0.05,,,0.50,,2013-06-07 08:02:00,
2013-06-07 04:52:00,61.0,60.0,29.78,South,178,0.0,0.0,97,0.08,,,0.57,,2013-06-07 08:52:00,
2013-06-07 05:02:00,61.0,60.0,29.78,South,177,0.0,0.0,97,0.08,,,0.60,,2013-06-07 09:02:00,
2013-06-07 05:12:00,61.0,60.0,29.78,South,177,0.0,0.0,97,0.08,,,0.60,,2013-06-07 09:12:00,
2013-06-07 05:22:00,60.0,59.0,29.77,South,177,0.0,0.0,97,0.06,,,0.60,,2013-06-07 09:22:00,
2013-06-07 05:32:00,60.0,59.0,29.77,South,178,0.0,0.0,97,0.05,,,0.60,,2013-06-07 09:32:00,
2013-06-07 05:43:00,60.0,59.0,29.77,South,178,0.0,0.0,97,0.05,,,0.60,,2013-06-07 09:43:00,
2013-06-07 05:53:00,60.0,59.0,29.77,South,177,0.0,0.0,97,0.04,,,0.62,,2013-06-07 09:53:00,
2013-06-07 06:03:00,60.0,59.0,29.77,South,177,0.0,0.0,97,0.02,,,0.62,,2013-06-07 10:03:00,
2013-06-07 06:13:00,60.0,59.0,29.77,South,177,0.0,0.0,97,0.02,,,0.62,,2013-06-07 10:13:00,
2013-06-07 06:23:00,61.0,60.0,29.77,South,178,0.0,0.0,97,0.02,,,0.62,,2013-06-07 10:23:00,
2013-06-07 06:33:00,61.0,60.0,29.77,South,177,0.0,0.0,97,0.02,,,0.62,,2013-06-07 10:33:00,
2013-06-07 06:42:00,61.0,60.0,29.77,South,177,0.0,0.0,97,0.02,,,0.62,,2013-06-07 10:42:00,
2013-06-07 06:52:00,60.0,59.0,29.77,South,178,0.0,0.0,97,0.00,,,0.62,,2013-06-07 10:52:00,
2013-06-07 07:02:00,61.0,60.0,29.77,South,177,0.0,1.0,97,0.00,,,0.62,,2013-06-07 11:02:00,
2013-06-07 07:12:00,61.0,60.0,29.77,South,177,0.0,1.0,97,0.00,,,0.62,,2013-06-07 11:12:00,
2013-06-07 07:22:00,61.0,60.0,29.77,South,177,0.0,1.0,97,0.00,,,0.62,,2013-06-07 11:22:00,
2013-06-07 07:32:00,61.0,60.0,29.77,South,178,0.0,1.0,97,0.00,,,0.60,,2013-06-07 11:32:00,
2013-06-07 07:42:00,61.0,60.0,29.77,South,178,0.0,1.0,97,0.00,,,0.60,,2013-06-07 11:42:00,
2013-06-07 07:52:00,61.0,60.0,29.77,South,178,0.0,0.0,97,0.00,,,0.60,,2013-06-07 11:52:00,
2013-06-07 08:02:00,61.0,60.0,29.77,South,178,0.0,0.0,97,0.00,,,0.60,,2013-06-07 12:02:00,
2013-06-07 08:13:00,61.0,60.0,29.77,South,178,0.0,0.0,97,0.00,,,0.60,,2013-06-07 12:13:00,
2013-06-07 08:22:00,61.0,60.0,29.76,South,177,0.0,0.0,97,0.01,,,0.61,,2013-06-07 12:22:00,
2013-06-07 08:32:00,61.0,60.0,29.76,South,178,0.0,0.0,97,0.01,,,0.61,,2013-06-07 12:32:00,
2013-06-07 08:42:00,61.0,60.0,29.76,South,178,0.0,0.0,97,0.01,,,0.61,,2013-06-07 12:42:00,
2013-06-07 08:52:00,62.0,61.0,29.76,South,177,0.0,0.0,97,0.01,,,0.61,,2013-06-07 12:52:00,
2013-06-07 09:02:00,62.0,61.0,29.76,South,177,1.0,6.0,97,0.01,,,0.61,,2013-06-07 13:02:00,
2013-06-07 09:13:00,62.0,61.0,29.76,South,177,1.0,6.0,97,0.01,,,0.61,,2013-06-07 13:13:00,
2013-06-07 09:22:00,62.0,61.0,29.76,South,177,1.0,4.0,97,0.00,,,0.61,,2013-06-07 13:22:00,
2013-06-07 09:32:00,62.0,61.0,29.76,South,178,0.0,3.0,97,0.01,,,0.62,,2013-06-07 13:32:00,
2013-06-07 09:43:00,62.0,61.0,29.76,South,178,0.0,3.0,97,0.01,,,0.62,,2013-06-07 13:43:00,
2013-06-07 09:52:00,63.0,62.0,29.77,South,177,0.0,3.0,97,0.03,,,0.64,,2013-06-07 13:52:00,
2013-06-07 10:03:00,63.0,62.0,29.77,South,177,1.0,4.0,97,0.03,,,0.64,,2013-06-07 14:03:00,
2013-06-07 10:13:00,63.0,62.0,29.77,South,177,1.0,4.0,97,0.03,,,0.64,,2013-06-07 14:13:00,
2013-06-07 10:23:00,63.0,62.0,29.77,South,177,0.0,4.0,96,0.04,,,0.65,,2013-06-07 14:23:00,
2013-06-07 10:33:00,63.0,62.0,29.77,South,177,1.0,4.0,96,0.03,,,0.64,,2013-06-07 14:33:00,
2013-06-07 10:42:00,63.0,62.0,29.77,South,177,1.0,4.0,96,0.03,,,0.64,,2013-06-07 14:42:00,
2013-06-07 10:52:00,64.0,63.0,29.76,South,177,1.0,4.0,95,0.01,,,0.64,,2013-06-07 14:52:00,
2013-06-07 11:03:00,65.0,63.0,29.76,South,176,0.0,5.0,94,0.01,,,0.64,,2013-06-07 15:03:00,
2013-06-07 11:12:00,65.0,63.0,29.76,South,176,0.0,5.0,94,0.01,,,0.64,,2013-06-07 15:12:00,
2013-06-07 11:23:00,65.0,63.0,29.76,South,178,2.0,5.0,93,0.00,,,0.64,,2013-06-07 15:23:00,
2013-06-07 11:33:00,66.0,64.0,29.76,South,176,2.0,6.0,92,0.00,,,0.64,,2013-06-07 15:33:00,
2013-06-07 11:43:00,66.0,64.0,29.76,South,176,2.0,6.0,92,0.00,,,0.64,,2013-06-07 15:43:00,
2013-06-07 11:53:00,66.0,63.0,29.76,South,174,3.0,11.0,91,0.00,,,0.64,,2013-06-07 15:53:00,
2013-06-07 12:03:00,65.0,62.0,29.77,South,176,2.0,9.0,91,0.00,,,0.64,,2013-06-07 16:03:00,
2013-06-07 12:13:00,65.0,62.0,29.77,South,176,2.0,9.0,91,0.00,,,0.64,,2013-06-07 16:13:00,
2013-06-07 12:22:00,65.0,63.0,29.77,South,173,1.0,5.0,92,0.00,,,0.64,,2013-06-07 16:22:00,
2013-06-07 12:33:00,66.0,64.0,29.77,South,175,1.0,5.0,92,0.00,,,0.64,,2013-06-07 16:33:00,
2013-06-07 12:43:00,66.0,64.0,29.77,South,175,1.0,5.0,92,0.00,,,0.64,,2013-06-07 16:43:00,
2013-06-07 12:53:00,65.0,62.0,29.78,South,173,1.0,7.0,91,0.00,,,0.64,,2013-06-07 16:53:00,
2013-06-07 13:03:00,66.0,63.0,29.79,South,171,1.0,8.0,90,0.00,,,0.64,,2013-06-07 17:03:00,
2013-06-07 13:13:00,66.0,63.0,29.79,South,171,1.0,8.0,90,0.00,,,0.64,,2013-06-07 17:13:00,
2013-06-07 13:23:00,68.0,65.0,29.79,South,170,0.0,6.0,89,0.00,,,0.64,,2013-06-07 17:23:00,
2013-06-07 13:32:00,69.0,64.0,29.79,South,170,1.0,4.0,85,0.00,,,0.64,,2013-06-07 17:32:00,
2013-06-07 13:43:00,69.0,64.0,29.79,South,170,1.0,4.0,85,0.00,,,0.64,,2013-06-07 17:43:00,
2013-06-07 13:52:00,71.0,66.0,29.79,South,170,1.0,4.0,83,0.00,,,0.64,,2013-06-07 17:52:00,
2013-06-07 14:20:00,71.0,65.0,29.79,South,172,1.0,6.0,80,0.00,,,0.64,,2013-06-07 18:20:00,
2013-06-07 14:27:00,70.0,65.0,29.78,South,173,1.0,6.0,84,0.00,,,0.64,,2013-06-07 18:27:00,
2013-06-07 14:37:00,71.0,66.0,29.78,SSE,167,0.0,7.0,83,0.00,,,0.64,,2013-06-07 18:37:00,
2013-06-07 14:45:00,71.0,66.0,29.78,SSE,167,0.0,7.0,83,0.00,,,0.64,,2013-06-07 18:45:00,
2013-06-07 14:56:00,72.0,66.0,29.78,South,170,2.0,9.0,81,0.00,,,0.64,,2013-06-07 18:56:00,
2013-06-07 15:08:00,74.0,66.0,29.78,South,172,1.0,8.0,75,0.00,,,0.64,,2013-06-07 19:08:00,
2013-06-07 15:15:00,74.0,66.0,29.78,South,172,1.0,8.0,75,0.00,,,0.64,,2013-06-07 19:15:00,
2013-06-07 15:29:00,74.0,65.0,29.78,South,173,1.0,9.0,74,0.00,,,0.64,,2013-06-07 19:29:00,
2013-06-07 15:49:00,75.0,65.0,29.78,South,173,1.0,7.0,72,0.00,,,0.64,,2013-06-07 19:49:00,
2013-06-07 15:55:00,75.0,64.0,29.78,South,173,1.0,5.0,69,0.00,,,0.64,,2013-06-07 19:55:00,
2013-06-07 16:08:00,74.0,63.0,29.78,South,176,3.0,11.0,68,0.00,,,0.64,,2013-06-07 20:08:00,
2013-06-07 16:17:00,74.0,63.0,29.78,South,176,3.0,11.0,68,0.00,,,0.64,,2013-06-07 20:17:00,
2013-06-07 16:27:00,74.0,62.0,29.78,South,174,4.0,14.0,66,0.00,,,0.64,,2013-06-07 20:27:00,
2013-06-07 16:39:00,75.0,64.0,29.78,South,174,2.0,8.0,69,0.00,,,0.64,,2013-06-07 20:39:00,
2013-06-07 16:48:00,75.0,64.0,29.78,South,174,2.0,8.0,69,0.00,,,0.64,,2013-06-07 20:48:00,
2013-06-07 16:56:00,75.0,64.0,29.78,South,175,1.0,7.0,68,0.00,,,0.64,,2013-06-07 20:56:00,
2013-06-07 17:07:00,73.0,62.0,29.78,South,174,1.0,7.0,68,0.00,,,0.64,,2013-06-07 21:07:00,
2013-06-07 17:20:00,73.0,62.0,29.78,South,174,1.0,7.0,68,0.00,,,0.64,,2013-06-07 21:20:00,
2013-06-07 17:29:00,73.0,63.0,29.79,South,177,1.0,5.0,71,0.00,,,0.64,,2013-06-07 21:29:00,
2013-06-07 17:41:00,72.0,61.0,29.80,South,173,1.0,5.0,69,0.00,,,0.64,,2013-06-07 21:41:00,
2013-06-07 17:56:00,72.0,62.0,29.79,South,176,0.0,3.0,72,0.00,,,0.64,,2013-06-07 21:56:00,
2013-06-07 18:09:00,73.0,63.0,29.80,South,176,1.0,5.0,71,0.00,,,0.64,,2013-06-07 22:09:00,
2013-06-07 18:23:00,73.0,63.0,29.80,South,176,1.0,5.0,71,0.00,,,0.64,,2013-06-07 22:23:00,
2013-06-07 18:28:00,72.0,62.0,29.80,South,176,1.0,6.0,71,0.00,,,0.64,,2013-06-07 22:28:00,
2013-06-07 18:39:00,73.0,62.0,29.79,South,178,1.0,5.0,69,0.00,,,0.64,,2013-06-07 22:39:00,
2013-06-07 18:48:00,73.0,62.0,29.79,South,178,1.0,5.0,69,0.00,,,0.64,,2013-06-07 22:48:00,
2013-06-07 19:10:00,70.0,61.0,29.81,South,177,0.0,4.0,73,0.00,,,0.64,,2013-06-07 23:10:00,
2013-06-07 19:31:00,69.0,61.0,29.81,South,177,0.0,4.0,75,0.00,,,0.64,,2013-06-07 23:31:00,
2013-06-07 19:39:00,67.0,60.0,29.81,South,178,0.0,2.0,78,0.00,,,0.64,,2013-06-07 23:39:00,
2013-06-07 19:57:00,67.0,60.0,29.82,South,177,0.0,1.0,79,0.00,,,0.64,,2013-06-07 23:57:00,
2013-06-07 20:14:00,66.0,62.0,29.84,South,177,0.0,2.0,86,0.00,,,0.64,,2013-06-08 00:14:00,
2013-06-07 20:35:00,64.0,61.0,29.85,South,173,1.0,7.0,89,0.05,,,0.69,,2013-06-08 00:35:00,
2013-06-07 20:45:00,64.0,61.0,29.85,South,173,1.0,7.0,89,0.05,,,0.69,,2013-06-08 00:45:00,
2013-06-07 20:56:00,63.0,60.0,29.85,South,169,0.0,3.0,89,0.09,,,0.73,,2013-06-08 00:56:00,
2013-06-07 21:08:00,62.0,60.0,29.86,South,169,1.0,3.0,92,0.13,,,0.77,,2013-06-08 01:08:00,
2013-06-07 21:19:00,62.0,60.0,29.86,South,169,1.0,3.0,92,0.13,,,0.77,,2013-06-08 01:19:00,
2013-06-07 21:29:00,62.0,60.0,29.87,South,169,1.0,3.0,93,0.16,,,0.81,,2013-06-08 01:29:00,
2013-06-07 21:39:00,62.0,60.0,29.88,South,170,1.0,3.0,94,0.18,,,0.87,,2013-06-08 01:39:00,
2013-06-07 21:46:00,62.0,60.0,29.88,South,170,1.0,3.0,94,0.18,,,0.87,,2013-06-08 01:46:00,
2013-06-07 21:57:00,62.0,60.0,29.88,South,176,0.0,8.0,94,0.26,,,0.99,,2013-06-08 01:57:00,
2013-06-07 22:15:00,61.0,59.0,29.88,South,173,2.0,7.0,94,0.30,,,1.07,,2013-06-08 02:15:00,
2013-06-07 22:37:00,60.0,58.0,29.88,South,174,0.0,3.0,94,0.24,,,1.11,,2013-06-08 02:37:00,
2013-06-07 22:48:00,60.0,58.0,29.88,South,174,0.0,3.0,94,0.24,,,1.11,,2013-06-08 02:48:00,
2013-06-07 22:54:00,60.0,58.0,29.88,South,174,0.0,2.0,93,0.12,,,1.11,,2013-06-08 02:54:00,
2013-06-07 23:11:00,60.0,58.0,29.89,South,174,0.0,3.0,93,0.04,,,1.11,,2013-06-08 03:11:00,
2013-06-07 23:18:00,60.0,58.0,29.89,South,174,0.0,3.0,93,0.04,,,1.11,,2013-06-08 03:18:00,
2013-06-07 23:27:00,60.0,58.0,29.89,South,174,0.0,1.0,93,0.02,,,1.11,,2013-06-08 03:27:00,
2013-06-07 23:38:00,60.0,58.0,29.89,South,175,0.0,1.0,93,0.00,,,1.11,,2013-06-08 03:38:00,
2013-06-07 23:52:00,60.0,58.0,29.89,South,175,0.0,1.0,93,0.00,,,1.11,,2013-06-08 03:52:00,